Location: Maiden_LMO
(35.5760°N, 81.2120°W)
Time: 22:15:21
(UTC-04:00)

Daily predictions for brighter satellites

Satellite Brightness Start Highest point End
(mag) Time Altitude Azimuth Time Altitude Azimuth Time Altitude Azimuth
CZ-4B DEB 3.8 20:17:25 10° SE 20:20:19 30° ENE 20:23:13 10° N
Helios 1B rocket 2.6 20:16:48 10° N 20:20:55 82° WNW 20:25:02 10° SSW
Lacrosse 5 rocket 2.8 20:19:52 10° N 20:22:37 19° NE 20:25:18 10° E
Cosmos 1315 Rocket 3.9 20:18:47 10° SSW 20:22:41 52° W 20:26:39 10° N
USA 186 3.5 20:21:53 10° ESE 20:23:47 15° ENE 20:25:39 10° NE
Cosmos 1570 Rocket 4.0 20:19:11 10° S 20:24:27 74° ESE 20:29:44 10° NNE
Okean 2 3.7 20:22:43 10° N 20:26:45 47° E 20:30:44 10° SSE
Meteor 2-16 Rocket 4.5 20:21:28 10° S 20:27:26 62° E 20:33:25 10° NNE
Meteor 1-23 Rocket 4.2 20:21:53 10° N 20:27:33 73° E 20:33:16 10° SSE
SJ-6B 4.3 20:27:06 10° SSW 20:30:35 38° W 20:34:07 10° NNW
OTV 4 0.5 20:28:12 10° WNW 20:31:09 72° NNE 20:34:01 11° E
FENGYUN 3A 4.0 20:30:22 10° SE 20:35:27 47° ENE 20:40:33 10° N
CZ-2D R/B 3.9 20:32:48 10° SE 20:36:21 36° ENE 20:39:57 10° N
Cosmos 1656 4.1 20:32:49 10° S 20:38:01 39° ESE 20:43:09 10° NE
FengYun 1-2 T 4.3 20:32:44 10° SSE 20:38:21 76° ENE 20:43:58 10° N
Hubble Space Telescope 2.7 20:38:00 10° WSW 20:41:00 19° SSW 20:43:59 10° SSE
Cosmos 1821 Rocket 4.1 20:36:19 10° S 20:42:27 80° W 20:48:33 10° N
Helios 1A 3.6 20:38:40 10° S 20:42:46 60° W 20:46:56 10° NNW
Tiangong 1 3.2 20:41:47 10° NW 20:44:14 20° N 20:46:39 10° NE
Cosmos 2227 Rocket 2.4 20:39:11 10° NNW 20:44:43 54° ENE 20:50:14 10° SE
Cosmos 1605 Rocket 4.1 20:39:18 10° S 20:45:32 61° E 20:51:43 10° NNE
Cosmos 1500 4.4 20:46:05 10° SE 20:49:00 22° E 20:51:58 10° NE
ERS-1 Rocket 4.2 20:48:08 14° ESE 20:51:09 23° ENE 20:55:04 10° NNE
Lacrosse 5 3.6 20:49:58 10° NNW 20:53:39 20° NE 20:56:52 12° ENE
Cosmos 1461 2.7 20:52:59 10° NNW 20:57:01 70° ENE 20:59:59 17° SE
DELTA 2 R/B (1) 3.8 20:51:46 10° WNW 20:57:19 66° NNE 21:01:40 17° E
Cosmos 1346 Rocket 2.8 20:54:36 10° N 20:58:35 84° W 21:02:34 10° S
Cosmos 2082 3.7 20:54:12 10° NNW 20:59:49 68° ENE 21:04:59 12° SSE
Cosmos 2297 Rocket 2.4 20:54:29 10° N 21:00:01 51° ENE 21:04:20 16° SE
H-2A R/B 3.9 21:03:38 13° ENE 21:03:54 13° ENE 21:05:51 10° NE
Cosmos 1898 Rocket 4.3 21:00:29 10° N 21:05:14 33° ENE 21:07:48 21° ESE
Cosmos 1626 Rocket 3.6 21:05:27 10° N 21:09:47 59° E 21:13:07 16° SSE
Cosmos 1455 Rocket 4.1 21:06:56 10° SSW 21:11:06 46° W 21:15:18 10° N
Cosmos 1515 4.0 21:11:37 10° N 21:15:19 45° E 21:16:39 31° SE
Cosmos 468 Rocket 3.9 21:12:41 10° S 21:17:44 62° ESE 21:22:47 10° NNE
Cosmos 2123 Rocket 4.3 21:12:24 10° NNW 21:18:32 70° W 21:24:40 10° S
Cosmos 1602 Rocket 3.5 21:14:39 10° N 21:19:07 77° E 21:22:29 17° SSE
RESURS DK-1 3.7 21:16:45 10° N 21:20:04 23° ENE 21:20:28 22° ENE
Cosmos 2084 4.1 21:19:02 10° NNW 21:22:53 38° NE 21:23:56 33° E
CZ-4 DEB 3.0 21:22:56 44° ENE 21:22:59 44° ENE 21:26:00 10° N
SJ-11-01 4.5 21:20:46 28° SE 21:23:00 51° ENE 21:27:33 10° N
Cosmos 841 Rocket 4.4 21:24:57 28° E 21:24:57 28° E 21:29:00 10° NE
Cosmos 1743 3.4 21:26:38 35° E 21:26:38 35° E 21:29:55 10° NNE
Cosmos 1459 Rocket 4.1 21:20:59 11° SSE 21:26:27 50° E 21:32:17 10° NNE
Cosmos 1814 Rocket 3.9 21:22:53 10° S 21:28:09 66° ESE 21:33:26 10° NNE
Cosmos 220 Rocket 3.8 21:25:50 10° NNW 21:30:05 90° SSW 21:31:56 33° SSE
Cosmos 1697 Rocket 2.6 21:27:43 10° SSW 21:33:23 89° ESE 21:39:03 10° NNE
Cosmos 1066 Rocket 4.2 21:29:41 10° N 21:35:21 65° E 21:38:16 30° SSE
Chunghua 1 4.5 21:31:58 10° W 21:35:49 81° S 21:36:25 61° ESE
OAO 2 Rocket 3.2 21:31:34 10° W 21:36:37 85° S 21:38:28 40° E
ALOS 4.2 21:42:56 10° SSW 21:46:56 28° W 21:50:57 10° NW
Cosmos 858 Rocket 4.4 21:43:10 10° NNW 21:48:28 76° ENE 21:49:56 48° SE
Cosmos 1606 Rocket 3.9 21:50:20 47° ENE 21:50:20 47° ENE 21:53:56 10° NNE
ARGOS 4.4 21:53:32 24° ENE 21:53:32 24° ENE 21:57:17 10° NNE
ASTEX 1 4.0 21:48:42 10° NNE 21:52:41 40° ENE 21:52:41 40° ENE
USA 186 4.4 21:52:39 10° SW 21:54:45 17° W 21:56:49 10° NW
Cosmos 1980 Rocket 2.1 21:50:46 10° SSW 21:56:24 84° ESE 22:02:08 10° NNE
Cosmos 1802 Rocket 3.9 21:55:57 21° S 22:00:25 83° E 22:06:52 10° N
Envisat 2.9 22:00:26 57° SSE 22:01:31 90° E 22:06:37 10° NNW
SL-08 R/B 4.5 22:00:46 51° SE 22:01:49 58° E 22:07:52 10° NNE
Lacrosse 5 rocket 2.3 21:58:33 10° WNW 22:01:42 35° WSW 22:01:42 35° WSW
Cosmos 2298 Rocket 4.3 21:57:03 10° NNW 22:02:19 64° WSW 22:04:08 40° S
OTV 4 3.3 22:04:47 10° W 22:05:33 15° WSW 22:05:33 15° WSW
MetOp-B 4.3 22:07:39 54° ENE 22:07:39 54° ENE 22:12:44 10° N
Cosmos 1937 Rocket 3.4 22:03:20 10° NNW 22:08:39 88° WSW 22:09:16 71° S
Cosmos 1726 Rocket 4.3 22:14:23 45° N 22:14:23 45° N 22:17:30 10° N
Cosmos 2016 Rocket 3.8 22:11:09 43° S 22:13:21 88° E 22:19:34 10° N
H-2A R/B 4.0 22:17:51 15° NE 22:17:51 15° NE 22:19:20 10° NNE
Cosmos 990 Rocket 3.9 22:15:52 10° NNW 22:20:53 81° N 22:20:53 81° N
Tiangong 1 4.0 22:18:23 10° NW 22:19:22 17° NW 22:19:22 17° NW
Cosmos 1939 Rocket 4.2 22:25:53 36° W 22:25:53 36° W 22:29:43 10° NNW
Cosmos 2263 Rocket 4.1 22:22:53 10° NNE 22:25:30 17° NE 22:25:30 17° NE
Cosmos 2322 Rocket 3.8 22:32:37 23° NE 22:32:37 23° NE 22:34:43 10° NNE
ERS-1 Rocket 4.3 22:28:09 28° SW 22:29:42 34° W 22:34:16 10° NNW
Cosmos 1825 Rocket 4.5 22:25:57 10° NNW 22:29:39 47° WNW 22:29:39 47° WNW
Cosmos 2098 Rocket 4.0 22:29:39 60° S 22:31:03 89° W 22:37:07 10° N
SPOT 1/Viking Rocket 4.2 22:36:07 47° NNE 22:36:07 47° NNE 22:39:56 10° N
Meteor 1-21 4.4 22:29:48 10° NNW 22:35:33 67° W 22:35:57 65° WSW
Lacrosse 5 2.4 22:32:02 10° NW 22:36:04 55° WNW 22:36:04 55° WNW
SPOT 5 3.5 22:39:47 56° WNW 22:39:47 56° WNW 22:43:57 10° NNW
H-2A R/B 3.6 22:40:46 32° WNW 22:40:46 32° WNW 22:43:26 10° NNW
Meteor 2-9 Rocket 4.4 22:41:31 63° NNW 22:41:31 63° NNW 22:46:08 10° N
USA 245 4.4 22:41:37 78° NNE 22:41:37 78° NNE 22:47:36 10° N
Cosmos 1864 Rocket 4.4 22:41:44 81° NNW 22:41:44 81° NNW 22:47:35 10° N
Cosmos 967 Rocket 4.4 22:37:08 10° NNW 22:43:06 80° NNW 22:43:06 80° NNW
Cosmos 2297 Rocket 4.4 22:39:48 10° WNW 22:43:33 18° W 22:46:11 14° SW
DELTA 2 R/B (1) 4.4 22:38:20 10° WNW 22:42:25 44° WSW 22:42:25 44° WSW
Tsikada Rocket 4.1 22:45:32 10° N 22:51:23 75° NNW 22:51:23 75° NNW
USA 215 4.1 23:03:14 39° NE 23:03:14 39° NE 23:09:12 10° NNW
Terra 4.1 23:11:26 19° N 23:11:26 19° N 23:12:47 10° N
Milstar 3 Cent rocket 4.2 23:06:48 10° W 23:22:31 47° SSW 23:22:31 47° SSW
SL-16 R/B 3.8 23:28:06 30° N 23:28:06 30° N 23:31:09 10° N
H-2A R/B 4.5 23:58:30 17° NW 23:58:30 17° NW 23:59:42 10° NNW
